This is the latest recevied weather packets stored in our database for station/object SQ9PDE-13. If no packets are shown the sender has not sent any weather packets the latest 10 day(s).
| Time | Temp. | Humidity | Pressure | Rain* | Wind** | Luminosity | Snow |
|---|---|---|---|---|---|---|---|
| 1777778651 | 8.33° C | 68% | 1019.9 hPa | - | - | - | - |
| 1777778351 | 8.33° C | 67% | 1019.8 hPa | - | - | - | - |
| 1777778051 | 8.33° C | 66% | 1019.6 hPa | - | - | - | - |
| 1777777750 | 8.33° C | 66% | 1019.8 hPa | - | - | - | - |
| 1777777450 | 8.33° C | 65% | 1019.8 hPa | - | - | - | - |
| 1777777149 | 8.33° C | 66% | 1019.8 hPa | - | - | - | - |
| 1777776848 | 7.78° C | 67% | 1019.9 hPa | - | - | - | - |
| 1777776548 | 8.33° C | 67% | 1019.9 hPa | - | - | - | - |
| 1777776247 | 7.78° C | 67% | 1019.9 hPa | - | - | - | - |
| 1777775947 | 7.78° C | 68% | 1019.9 hPa | - | - | - | - |
| 1777775646 | 7.78° C | 67% | 1019.9 hPa | - | - | - | - |
| 1777775346 | 8.33° C | 65% | 1019.9 hPa | - | - | - | - |
| 1777775045 | 8.89° C | 62% | 1019.8 hPa | - | - | - | - |
| 1777774745 | 8.89° C | 63% | 1019.8 hPa | - | - | - | - |
| 1777774444 | 9.44° C | 60% | 1019.7 hPa | - | - | - | - |
| 1777774144 | 9.44° C | 60% | 1019.6 hPa | - | - | - | - |
| 1777773843 | 8.89° C | 61% | 1019.8 hPa | - | - | - | - |
| 1777773543 | 9.44° C | 60% | 1019.7 hPa | - | - | - | - |
| 1777773242 | 9.44° C | 60% | 1019.8 hPa | - | - | - | - |
| 1777772942 | 9.44° C | 60% | 1019.8 hPa | - | - | - | - |
| 1777772641 | 10° C | 59% | 1019.8 hPa | - | - | - | - |
| 1777772341 | 10° C | 58% | 1019.6 hPa | - | - | - | - |
| 1777772040 | 10° C | 57% | 1019.6 hPa | - | - | - | - |
| 1777771739 | 10° C | 57% | 1019.6 hPa | - | - | - | - |
| 1777771439 | 10.56° C | 56% | 1019.5 hPa | - | - | - | - |
* Rain since midnight (hover to see other rain measurements)
** Current wind speed in m/s (hover to see current wind gust speed)